Weather History for KFKS - February, 2013

Change the Weather History Date:

Sunday, February 3, 2013

  Actual Average (KTVC) Record (KTVC)
Temperature  
Mean Temperature 14 °F 21 °F  
Max Temperature 17 °F 28 °F 50 °F (1922)
Min Temperature 12 °F 14 °F -25 °F (1996)
Degree Days  
Heating Degree Days 50 44  
Month to date heating degree days 132  
Since 1 July heating degree days 4288  
Moisture  
Dew Point 8 °F    
Average Humidity 71    
Maximum Humidity 88    
Minimum Humidity 57    
Precipitation  
Precipitation 0.00 in 0.06 in 0.80 in (1938)
Month to date precipitation 0.18  
Year to date precipitation 3.00  
Sea Level Pressure  
Sea Level Pressure 29.89 in    
Wind  
Wind Speed 6 mph (NW)    
Max Wind Speed 16 mph    
Max Gust Speed 21 mph    
Visibility 7 miles    
Events Snow    
T = Trace of Precipitation, MM = Missing Value Source: NWS Daily Summary

Daily Weather History Graph

Daily Weather History Graph

Search for Another Location

Airport or City:

Trip Planner

Search our weather history database for the weather conditions in past years. The results will help you decide how hot, cold, wet, or windy it might be!

Date:

Astronomy

Feb. 03, 2013 Rise Set
Actual Time 8:01 AM EST 5:56 PM EST
Civil Twilight 7:30 AM EST 6:27 PM EST
Nautical Twilight 6:55 AM EST 7:02 PM EST
Astronomical Twilight 6:21 AM EST 7:36 PM EST
Moon 1:28 AM EST (2/3) 11:32 AM EST (2/3)
Length of Visible Light 10h 57m
Length of Day
9h 55m
Waning Gibbous, 49% of the Moon is Illuminated
Feb 3
Waning Gibbous
Feb 10
New
Feb 17
First Quarter
Feb 25
Full
Mar 4
Last Quarter

Hourly Weather History & Observations

Time (EST) Temp. Windchill Dew Point Humidity Pressure Visibility Wind Dir Wind Speed Gust Speed Precip Events Conditions
12:13 AM 14.0 °F 8.2 °F 8.2 °F 78% 29.98 in 10.0 mi SE 3.5 mph - N/A   Overcast
12:38 AM 13.8 °F - 8.1 °F 78% 29.97 in 10.0 mi Calm Calm - N/A   Overcast
12:53 AM 13.6 °F - 8.1 °F 78% 29.97 in 10.0 mi Calm Calm - N/A   Overcast
1:13 AM 14.0 °F - 7.7 °F 76% 29.96 in 10.0 mi Calm Calm - N/A   Overcast
1:33 AM 13.8 °F 8.0 °F 8.4 °F 79% 29.95 in 10.0 mi SE 3.5 mph - N/A   Overcast
1:54 AM 14.0 °F 6.5 °F 7.7 °F 76% 29.95 in 10.0 mi SE 4.6 mph - N/A   Overcast
2:14 AM 14.0 °F 6.5 °F 7.7 °F 76% 29.93 in 7.0 mi ESE 4.6 mph - N/A Snow Light Snow
2:34 AM 14.0 °F 8.2 °F 7.7 °F 76% 29.93 in 10.0 mi ESE 3.5 mph - N/A   Overcast
2:54 AM 14.0 °F - 7.5 °F 75% 29.93 in 10.0 mi Calm Calm - N/A   Overcast
3:14 AM 14.0 °F 6.5 °F 7.3 °F 75% 29.92 in 10.0 mi ESE 4.6 mph - N/A   Overcast
3:34 AM 14.0 °F 6.5 °F 6.4 °F 72% 29.91 in 10.0 mi ESE 4.6 mph - N/A   Overcast
3:54 AM 14.0 °F 6.5 °F 6.1 °F 71% 29.90 in 10.0 mi SSE 4.6 mph - N/A   Overcast
4:15 AM 14.0 °F 5.1 °F 6.1 °F 71% 29.89 in 10.0 mi South 5.8 mph - N/A   Overcast
4:55 AM 13.5 °F - 7.9 °F 78% 29.88 in 4.0 mi Calm Calm - N/A Snow Light Snow
5:15 AM 13.1 °F - 8.2 °F 81% 29.88 in 2.0 mi Calm Calm - N/A Snow Light Snow
5:35 AM 13.1 °F 2.8 °F 8.6 °F 82% 29.87 in 1.2 mi South 6.9 mph - N/A Snow Snow
6:15 AM 12.9 °F - 9.9 °F 88% 29.86 in 0.8 mi Calm Calm - N/A Snow Snow
6:35 AM 13.1 °F 7.1 °F 10.2 °F 88% 29.86 in 1.0 mi SE 3.5 mph - N/A Snow Snow
6:55 AM 13.1 °F - 10.2 °F 88% 29.86 in 1.8 mi Calm Calm - N/A Snow Light Snow
7:16 AM 13.3 °F - 10.4 °F 88% 29.86 in 3.0 mi Calm Calm - N/A Snow Light Snow
7:36 AM 15.6 °F 4.0 °F 9.7 °F 77% 29.85 in 7.0 mi West 9.2 mph - N/A Snow Light Snow
7:56 AM 16.2 °F 7.6 °F 9.5 °F 75% 29.85 in 5.0 mi West 5.8 mph - N/A Snow Light Snow
8:16 AM 15.8 °F 6.1 °F 10.2 °F 79% 29.85 in 1.5 mi WNW 6.9 mph - N/A Snow Light Snow
8:36 AM 15.8 °F 5.1 °F 10.4 °F 79% 29.85 in 1.5 mi West 8.1 mph - N/A Snow Light Snow
8:56 AM 15.8 °F 4.2 °F 10.4 °F 79% 29.85 in 1.8 mi WNW 9.2 mph - N/A Snow Light Snow
9:16 AM 15.6 °F 2.5 °F 10.8 °F 81% 29.85 in 1.2 mi WNW 11.5 mph - N/A Snow Light Snow
9:36 AM 15.6 °F 4.0 °F 10.0 °F 79% 29.84 in 1.5 mi West 9.2 mph - N/A Snow Light Snow
9:51 AM 15.6 °F 2.5 °F 9.9 °F 78% 29.84 in 2.0 mi WNW 11.5 mph - N/A Snow Light Snow
10:11 AM 15.4 °F 3.0 °F 9.5 °F 77% 29.83 in 1.8 mi WNW 10.4 mph 17.3 mph N/A Snow Light Snow
10:31 AM 15.4 °F 3.8 °F 9.7 °F 78% 29.84 in 2.0 mi WNW 9.2 mph - N/A Snow Light Snow
10:52 AM 15.3 °F 1.4 °F 10.4 °F 81% 29.83 in 1.2 mi WNW 12.7 mph - N/A Snow Light Snow
11:12 AM 15.6 °F 1.8 °F 9.7 °F 77% 29.84 in 2.0 mi WNW 12.7 mph - N/A Snow Light Snow
11:32 AM 15.6 °F 4.0 °F 8.8 °F 74% 29.84 in 2.5 mi WNW 9.2 mph - N/A Snow Light Snow
11:52 AM 15.4 °F 1.0 °F 10.2 °F 80% 29.84 in 1.5 mi NW 13.8 mph - N/A Snow Light Snow
12:12 PM 15.4 °F 3.8 °F 9.1 °F 76% 29.84 in 2.0 mi WNW 9.2 mph - N/A Snow Light Snow
12:32 PM 15.3 °F 1.4 °F 7.7 °F 72% 29.84 in 5.0 mi WNW 12.7 mph - N/A Snow Light Snow
12:52 PM 15.4 °F 1.6 °F 8.6 °F 74% 29.84 in 2.5 mi NW 12.7 mph 18.4 mph N/A Snow Light Snow
1:13 PM 15.8 °F 3.4 °F 8.6 °F 73% 29.84 in 7.0 mi NW 10.4 mph 16.1 mph N/A Snow Light Snow
1:33 PM 16.2 °F 3.2 °F 8.6 °F 72% 29.85 in 10.0 mi NW 11.5 mph - N/A Snow Light Snow
1:53 PM 16.5 °F 2.4 °F 8.6 °F 71% 29.85 in 10.0 mi NW 13.8 mph 20.7 mph N/A Snow Light Snow
2:13 PM 16.7 °F 3.2 °F 8.1 °F 69% 29.85 in 10.0 mi NW 12.7 mph 18.4 mph N/A Snow Light Snow
2:33 PM 17.1 °F 4.3 °F 8.1 °F 68% 29.85 in 10.0 mi NW 11.5 mph 20.7 mph N/A   Overcast
2:53 PM 17.2 °F 3.9 °F 7.7 °F 66% 29.85 in 10.0 mi NW 12.7 mph 19.6 mph N/A   Overcast
3:13 PM 17.4 °F 2.4 °F 7.0 °F 64% 29.86 in 10.0 mi NW 16.1 mph 19.6 mph N/A   Overcast
3:33 PM 17.2 °F 6.0 °F 7.3 °F 65% 29.87 in 10.0 mi NW 9.2 mph - N/A   Overcast
3:53 PM 17.6 °F 4.3 °F 7.7 °F 65% 29.87 in 10.0 mi WNW 12.7 mph 19.6 mph N/A   Overcast
4:14 PM 17.4 °F 3.5 °F 8.2 °F 67% 29.88 in 7.0 mi NW 13.8 mph 20.7 mph N/A   Overcast
4:34 PM 17.4 °F 3.5 °F 6.4 °F 62% 29.88 in 10.0 mi NW 13.8 mph - N/A   Overcast
4:54 PM 17.6 °F 2.7 °F 6.8 °F 63% 29.89 in 10.0 mi WNW 16.1 mph - N/A   Overcast
5:34 PM 17.2 °F 3.9 °F 7.5 °F 66% 29.89 in 10.0 mi NW 12.7 mph 18.4 mph N/A Snow Light Snow
5:54 PM 17.4 °F 6.2 °F 7.3 °F 65% 29.90 in 10.0 mi NW 9.2 mph - N/A   Overcast
6:14 PM 17.2 °F 4.5 °F 7.2 °F 65% 29.91 in 10.0 mi NW 11.5 mph 18.4 mph N/A   Overcast
6:34 PM 17.2 °F 6.0 °F 5.0 °F 59% 29.91 in 10.0 mi NW 9.2 mph 18.4 mph N/A   Overcast
6:54 PM 17.2 °F 4.5 °F 6.8 °F 64% 29.92 in 10.0 mi NW 11.5 mph - N/A   Overcast
7:15 PM 17.1 °F 4.3 °F 4.3 °F 57% 29.93 in 10.0 mi NNW 11.5 mph - N/A   Overcast
7:35 PM 17.1 °F 7.6 °F 5.0 °F 59% 29.93 in 10.0 mi NW 6.9 mph - N/A   Overcast
7:55 PM 17.1 °F 6.6 °F 4.8 °F 59% 29.93 in 10.0 mi NNW 8.1 mph - N/A   Overcast
8:15 PM 17.1 °F 6.6 °F 5.7 °F 61% 29.94 in 10.0 mi NW 8.1 mph 17.3 mph N/A   Overcast
8:35 PM 16.7 °F 6.2 °F 4.1 °F 58% 29.94 in 10.0 mi NW 8.1 mph - N/A   Overcast
8:55 PM 17.1 °F 3.6 °F 4.1 °F 57% 29.94 in 10.0 mi NW 12.7 mph - N/A   Overcast
9:15 PM 16.9 °F 9.8 °F 4.1 °F 57% 29.95 in 10.0 mi NNW 4.6 mph 9.2 mph N/A   Overcast
9:36 PM 16.7 °F 7.2 °F 4.5 °F 59% 29.95 in 10.0 mi NW 6.9 mph - N/A   Overcast
9:56 PM 16.7 °F 8.3 °F 5.0 °F 60% 29.95 in 10.0 mi NW 5.8 mph 9.2 mph N/A   Overcast
10:16 PM 16.5 °F 5.1 °F 6.1 °F 64% 29.95 in 10.0 mi NW 9.2 mph - N/A   Overcast
10:31 PM 16.7 °F 8.3 °F 5.0 °F 60% 29.95 in 10.0 mi NW 5.8 mph - N/A   Overcast
10:51 PM 16.5 °F 8.1 °F 5.9 °F 63% 29.95 in 10.0 mi NNW 5.8 mph - N/A   Overcast
11:11 PM 16.3 °F 7.8 °F 7.0 °F 67% 29.95 in 10.0 mi NNW 5.8 mph - N/A   Overcast
11:31 PM 16.3 °F 5.7 °F 4.5 °F 60% 29.95 in 10.0 mi NW 8.1 mph - N/A   Overcast
11:52 PM 16.0 °F 5.3 °F 5.4 °F 63% 29.95 in 10.0 mi NW 8.1 mph - N/A   Overcast